Concordia, KS

4:43 PM CDT on August 16, 2017 (GMT -0500)
Blosser Municipal

Weather History for KCNK - September, 2014

Change the Weather History Date:

Tuesday, September 30, 2014

  Actual Average Record
Temperature  
Mean Temperature 67 °F 62 °F  
Max Temperature 71 °F 74 °F 95 °F (1994)
Min Temperature 63 °F 50 °F 29 °F (1895)
Degree Days  
Heating Degree Days 0 5  
Month to date heating degree days 82 70  
Since 1 July heating degree days 84 73  
Cooling Degree Days 2 2  
Month to date cooling degree days 135 160  
Year to date cooling degree days 1344 1326  
Growing Degree Days 16 (Base 50)    
Moisture  
Dew Point 64 °F    
Average Humidity 84    
Maximum Humidity 100    
Minimum Humidity 68    
Precipitation  
Precipitation 0.77 in 0.09 in 3.16 in (1907)
Month to date precipitation 3.25 2.91  
Year to date precipitation 23.91 24.01  
Snow  
Snow 0.00 in 0.00 in T in (1911)
Month to date snowfall 0.0 0.0  
Year to date snowfall 16.9 13.7  
Since 1 July snowfall 0.0 0.0  
Snow Depth 0.00 in    
Sea Level Pressure  
Sea Level Pressure 29.78 in    
Wind  
Wind Speed 9 mph (SE)    
Max Wind Speed 20 mph    
Max Gust Speed 25 mph    
Visibility 6 miles    
Events Rain , Thunderstorm    
T = Trace of Precipitation, MM = Missing Value Source: NWS Daily Summary

Daily Weather History Graph

Daily Weather History Graph

Search for Another Location

Airport or City:

Trip Planner

Search our weather history database for the weather conditions in past years. The results will help you decide how hot, cold, wet, or windy it might be!

Date:

Astronomy

Sep. 30, 2014 Rise Set
Actual Time 7:25 AM CDT 7:14 PM CDT
Civil Twilight 6:58 AM CDT 7:41 PM CDT
Nautical Twilight 6:27 AM CDT 8:12 PM CDT
Astronomical Twilight 5:56 AM CDT 8:44 PM CDT
Moon 1:34 PM CDT (9/30) 11:47 PM CDT (9/30)
Length of Visible Light 12h 42m
Length of Day
11h 48m
Waxing Crescent, 38% of the Moon is Illuminated
Sep 30
Waxing Crescent
Oct 1
First Quarter
Oct 8
Full
Oct 15
Last Quarter
Oct 23
New

Hourly Weather History & Observations

Time (CDT) Temp. Dew Point Humidity Pressure Visibility Wind Dir Wind Speed Gust Speed Precip Events Conditions
12:55 AM 68.0 °F 59.0 °F 73% 29.88 in 10.0 mi SSE 11.5 mph - N/A   Clear
1:55 AM 68.0 °F 60.1 °F 76% 29.86 in 10.0 mi South 13.8 mph - N/A   Clear
2:55 AM 68.0 °F 59.0 °F 73% 29.84 in 10.0 mi SSE 15.0 mph 21.9 mph N/A   Partly Cloudy
3:55 AM 66.9 °F 59.0 °F 76% 29.83 in 10.0 mi South 16.1 mph 24.2 mph N/A   Clear
4:55 AM 66.9 °F 59.0 °F 76% 29.81 in 10.0 mi South 15.0 mph 20.7 mph N/A   Clear
5:55 AM 68.0 °F 57.9 °F 70% 29.81 in 10.0 mi South 17.3 mph 25.3 mph N/A   Mostly Cloudy
6:55 AM 66.0 °F 59.0 °F 78% 29.81 in 10.0 mi South 17.3 mph - 0.02 in Rain Light Rain
7:55 AM 64.0 °F 61.0 °F 90% 29.84 in 7.0 mi SSW 11.5 mph - 0.01 in Rain Light Rain
8:55 AM 62.6 °F 60.8 °F 94% 29.88 in 7.0 mi SW 5.8 mph - N/A Rain Light Rain
9:55 AM 63.0 °F 62.1 °F 97% 29.83 in 6.0 mi SE 5.8 mph - 0.07 in Rain Light Rain
10:55 AM 63.0 °F 62.1 °F 97% 29.82 in 7.0 mi SSE 10.4 mph - 0.01 in Rain Light Rain
11:37 AM 64.0 °F 63.0 °F 96% 29.84 in 10.0 mi South 11.5 mph 20.7 mph 0.06 in Rain , Thunderstorm Light Rain
11:44 AM 64.0 °F 63.0 °F 96% 29.84 in 2.0 mi South 12.7 mph 20.7 mph 0.07 in Rain , Thunderstorm Heavy Thunderstorms and Rain
11:46 AM 64.0 °F 63.0 °F 96% 29.84 in 1.2 mi South 13.8 mph - 0.09 in Rain , Thunderstorm Heavy Thunderstorms and Rain
11:53 AM 64.4 °F 62.6 °F 94% 29.84 in 0.8 mi South 11.5 mph 20.7 mph 0.21 in Rain , Thunderstorm Heavy Thunderstorms and Rain
11:55 AM 64.0 °F 63.0 °F 96% 29.81 in 1.0 mi South 10.4 mph 20.7 mph 0.23 in Rain , Thunderstorm Heavy Thunderstorms and Rain
11:59 AM 64.0 °F 63.0 °F 96% 29.84 in 1.5 mi South 10.4 mph - 0.02 in Rain , Thunderstorm Rain
12:06 PM 64.0 °F 64.0 °F 100% 29.84 in 3.0 mi South 10.4 mph - 0.03 in Rain , Thunderstorm Light Rain
12:17 PM 64.9 °F 64.0 °F 97% 29.83 in 5.0 mi South 8.1 mph - 0.04 in Rain Light Rain
12:44 PM 64.9 °F 64.0 °F 97% 29.83 in 1.8 mi South 10.4 mph - 0.07 in Rain Heavy Rain
12:52 PM 64.4 °F 64.4 °F 100% 29.83 in 1.5 mi South 10.4 mph - 0.11 in Rain Rain
12:55 PM 64.9 °F 64.0 °F 97% 29.80 in 1.8 mi South 8.1 mph - 0.13 in Rain Rain
1:02 PM 64.9 °F 64.0 °F 97% 29.82 in 3.0 mi South 9.2 mph - 0.01 in Rain Light Rain
1:23 PM 64.9 °F 64.0 °F 97% 29.82 in 1.8 mi South 8.1 mph - 0.05 in Rain Rain
1:37 PM 64.9 °F 64.0 °F 97% 29.80 in 2.0 mi SSE 12.7 mph - 0.11 in Rain Rain
1:46 PM 64.9 °F 64.9 °F 100% 29.79 in 6.0 mi SSE 13.8 mph - 0.11 in Rain Light Rain
1:55 PM 64.9 °F 64.9 °F 100% 29.75 in 8.0 mi SSE 10.4 mph - 0.11 in   Overcast
2:13 PM 66.0 °F 64.9 °F 96% 29.77 in 8.0 mi SE 9.2 mph - N/A Thunderstorm Overcast
2:28 PM 66.0 °F 64.9 °F 96% 29.76 in 9.0 mi SE 9.2 mph - N/A   Overcast
2:55 PM 68.0 °F 66.0 °F 93% 29.72 in 10.0 mi SSE 6.9 mph - N/A   Overcast
3:43 PM 69.1 °F 66.0 °F 90% 29.75 in 10.0 mi North 3.5 mph - 0.01 in Thunderstorm Overcast
3:55 PM 70.0 °F 66.9 °F 90% 29.72 in 10.0 mi Calm Calm - 0.01 in   Overcast
4:55 PM 70.0 °F 66.9 °F 90% 29.70 in 10.0 mi NE 4.6 mph - N/A   Mostly Cloudy
5:06 PM 69.8 °F 66.2 °F 88% 29.73 in 10.0 mi ENE 5.8 mph - N/A   Overcast
5:25 PM 70.0 °F 66.9 °F 90% 29.72 in 9.0 mi NE 6.9 mph - N/A   Mostly Cloudy
5:55 PM 69.1 °F 66.9 °F 93% 29.68 in 9.0 mi NE 6.9 mph - 0.01 in   Mostly Cloudy
6:55 PM 66.9 °F 66.9 °F 100% 29.69 in 6.0 mi NNW 9.2 mph - N/A   Mostly Cloudy
7:38 PM 66.9 °F 66.9 °F 100% 29.73 in 7.0 mi ENE 4.6 mph - 0.00 in Thunderstorm Mostly Cloudy
7:55 PM 66.9 °F 66.9 °F 100% 29.70 in 5.0 mi NNE 8.1 mph - 0.00 in   Mostly Cloudy
8:00 PM 66.9 °F 66.9 °F 100% 29.73 in 5.0 mi NE 6.9 mph - 0.01 in Rain , Thunderstorm Rain
8:07 PM 66.9 °F 66.0 °F 97% 29.72 in 5.0 mi NE 9.2 mph - 0.01 in Rain , Thunderstorm Light Thunderstorms and Rain
8:22 PM 66.0 °F 66.0 °F 100% 29.72 in 5.0 mi NE 8.1 mph - 0.01 in Rain Light Rain
8:29 PM 66.0 °F 66.0 °F 100% 29.71 in 5.0 mi ENE 6.9 mph - 0.01 in Rain Light Rain
8:41 PM 66.0 °F 66.0 °F 100% 29.73 in 5.0 mi East 4.6 mph - 0.01 in Thunderstorm Mostly Cloudy
8:55 PM 66.0 °F 66.0 °F 100% 29.72 in 5.0 mi SE 6.9 mph - 0.01 in Thunderstorm Mostly Cloudy
9:13 PM 66.9 °F 66.0 °F 97% 29.73 in 7.0 mi East 5.8 mph - 0.01 in Rain Light Rain
9:44 PM 66.0 °F 66.0 °F 100% 29.73 in 2.5 mi ESE 8.1 mph - 0.08 in Rain , Thunderstorm Heavy Thunderstorms and Rain
9:55 PM 66.0 °F 66.0 °F 100% 29.70 in 4.0 mi ESE 4.6 mph - 0.10 in Rain , Thunderstorm Light Thunderstorms and Rain
10:05 PM 66.0 °F 66.0 °F 100% 29.72 in 5.0 mi ESE 3.5 mph - 0.01 in Rain , Thunderstorm Light Rain
10:15 PM 66.0 °F 66.0 °F 100% 29.72 in 5.0 mi SE 6.9 mph - 0.01 in   Partly Cloudy
10:55 PM 64.9 °F 64.9 °F 100% 29.69 in 8.0 mi SE 4.6 mph - 0.01 in Thunderstorm Clear
11:09 PM 64.9 °F 64.9 °F 100% 29.71 in 8.0 mi East 8.1 mph - N/A   Clear
11:55 PM 64.9 °F 64.9 °F 100% 29.69 in 10.0 mi ESE 3.5 mph - N/A   Partly Cloudy